Location: Newark
(16.3678°N, 77.8722°E)
Time: 14:12:54
(UTC+00:00)

Tiros 1 - Pass Details

Date: 14 December 2019
Orbit: 630 x 664 km, 48.4° (Epoch: 25 January)

Event Time Altitude Azimuth Distance (km) Brightness Sun altitude
Rises 07:43:50 0° 310° (NW) 2,907 10.4 47.7°
Reaches altitude 10° 07:46:13 10° 305° (NW) 1,998 9.7 47.5°
Maximum altitude 07:50:38 49° 231° (SW) 810 9.5 47.1°
Drops below altitude 10° 07:55:04 10° 156° (SSE) 1,998 10.2 46.7°
Sets 07:57:27 0° 151° (SSE) 2,907 10.8 46.4°
